Flag for France Weather past 2 weeks in Bordeaux, France

Now
52 °F

Clear.


Feels Like: 50 °F
Forecast: 51 / 74 °F
Wind: 6 mph from Southwest

Location: Bordeaux / Merignac

Current Time: Sep 5, 2015 at 3:36:08 AM

Latest Report: Sep 5, 2015 at 3:00 AM


Visibility: 10 mi

Pressure: 30.12 "Hg

Humidity: 82%

Dew point: 46 °F

Location of BordeauxLocation

Historic Weather in Bordeaux — Graph

°F

Bordeaux temperature yesterday

Maximum temperature yesterday: 70 °F (at 1:00 PM)
Minimum temperature yesterday: 48 °F (at 6:00 AM)
Average temperature yesterday: 60 °F

Past Weeks' High & Low Weather Summary

 TemperatureHumidityPressure
High93 °F (Aug 29, 4:30 PM)100% (Aug 22, 9:30 AM)30.15 "Hg (Aug 22, 9:30 AM)
Low48 °F (Sep 4, 6:00 AM)33% (Aug 21, 4:30 PM)29.56 "Hg (Aug 24, 1:30 AM)
Average71 °F67%29.97 "Hg
* Reported Aug 21 2:00 AM — Sep 5 2:30 AM, Bordeaux, Weather by CustomWeather, © 2015

Note: Actual official high and low records may vary slightly from our data, if they occured in-between our weather recording intervals... More about our weather records

Advertising

Bordeaux weather history for previous 24 hours

 ConditionsComfort  
Time TempWeatherWind HumidityBarometerVisibility
2:30 AM
Sat, Sep 5
52 °FPassing clouds.6 mph82%30.12 "HgN/A
2:00 AM52 °FClear.5 mph82%30.12 "Hg10 mi
1:30 AM54 °FClear.6 mph77%30.12 "Hg10 mi
1:00 AM54 °FClear.5 mph77%30.12 "Hg10 mi
12:30 AM54 °FClear.6 mph77%30.12 "Hg10 mi
12:00 AM54 °FClear.5 mph77%30.12 "Hg10 mi
11:30 PM
Fri, Sep 4
55 °FClear.5 mph72%30.12 "Hg10 mi
11:00 PM57 °FClear.5 mph67%30.12 "Hg10 mi
10:30 PM57 °FClear.5 mph67%30.12 "Hg10 mi
10:00 PM59 °FPassing clouds.5 mph68%30.12 "HgN/A
9:30 PM59 °FPassing clouds.6 mph68%30.09 "HgN/A
9:00 PM61 °FSunny.8 mph63%30.09 "Hg10 mi
8:30 PM63 °FSunny.9 mph59%30.07 "Hg10 mi
8:00 PM64 °FSunny.12 mph52%30.07 "Hg10 mi
7:30 PM68 °FSunny.12 mph49%30.07 "Hg10 mi
7:00 PM66 °FPassing clouds.8 mph52%30.07 "HgN/A
6:30 PM66 °FPassing clouds.8 mph56%30.07 "HgN/A
6:00 PM66 °FPassing clouds.9 mph56%30.07 "HgN/A
5:30 PM68 °FSunny.9 mph53%30.07 "Hg10 mi
5:00 PM68 °FOvercast.10 mph53%30.07 "HgN/A
4:30 PM68 °FMostly cloudy.8 mph49%30.07 "HgN/A
4:00 PM70 °FPassing clouds.8 mph46%30.07 "HgN/A
3:30 PM70 °FSunny.2 mph43%30.07 "Hg10 mi
3:00 PM68 °FSunny.8 mph46%30.07 "Hg10 mi
2:30 PM70 °FPassing clouds.6 mph46%30.07 "HgN/A
2:00 PM70 °FSunny.3 mph46%30.07 "Hg10 mi
1:30 PM70 °FPartly sunny.6 mph43%30.09 "HgN/A
1:00 PM70 °FPartly sunny.7 mph46%30.09 "HgN/A
12:30 PM68 °FScattered clouds.8 mph53%30.09 "HgN/A
12:00 PM68 °FScattered clouds.5 mph53%30.09 "HgN/A
11:30 AM66 °FPassing clouds.6 mph56%30.09 "HgN/A
11:00 AM64 °FPassing clouds.6 mph60%30.09 "HgN/A
10:30 AM63 °FPassing clouds.3 mph68%30.09 "HgN/A
10:00 AM61 °FSunny.2 mph77%30.09 "Hg10 mi
9:30 AM57 °FFog.3 mph82%30.09 "HgN/A
9:00 AM54 °FSunny.3 mph88%30.09 "HgN/A
8:30 AM50 °FSunny.3 mph94%30.09 "Hg10 mi
8:00 AM48 °FClear.2 mph87%30.09 "Hg10 mi
7:30 AM48 °FClear.3 mph87%30.07 "Hg10 mi
7:00 AM48 °FClear.3 mph87%30.07 "Hg10 mi
6:30 AM48 °FClear.2 mph87%30.09 "Hg10 mi
6:00 AM48 °FClear.3 mph87%30.07 "Hg10 mi
5:30 AM50 °FClear.2 mph82%30.07 "Hg10 mi
5:00 AM50 °FClear.3 mph88%30.09 "Hg10 mi
4:30 AM50 °FClear.2 mph88%30.09 "Hg10 mi
4:00 AM50 °FClear.1 mph88%30.09 "Hg10 mi
3:30 AM52 °FClear.3 mph82%30.09 "Hg10 mi
3:00 AM52 °FClear.5 mph82%30.09 "Hg10 mi
Weather by CustomWeather, © 2015

See weather overviewHow to use our weather pages